| time (UTC) | temp C | wind direction | speed KPH | gust KPH | rain 1hr cm | rain 24hr cm | rain mn cm | humidity % | barometer mb |
| 20260503185043 | -2 | 339 | 12.9 | 12.9 | 0.00 | 0.00 | 0.13 | 6550.2 | |
| 20260503184839 | -2 | 293 | 11.3 | 12.9 | 0.00 | 0.00 | 0.13 | 6550.2 | |
| 20260503184635 | -2 | 309 | 11.3 | 14.5 | 0.00 | 0.00 | 0.13 | 6550.2 | |
| 20260503184431 | -2 | 290 | 6.4 | 14.5 | 0.00 | 0.00 | 0.13 | 6550.2 | |
| 20260503184227 | -2 | 301 | 6.4 | 14.5 | 0.00 | 0.00 | 0.13 | 6550.2 | |
| 20260503184023 | -2 | 307 | 16.1 | 17.7 | 0.00 | 0.00 | 0.13 | 6550.2 | |
| 20260503183819 | -2 | 330 | 12.9 | 17.7 | 0.00 | 0.00 | 0.13 | 6550.2 | |
| 20260503183615 | -2 | 341 | 11.3 | 17.7 | 0.00 | 0.00 | 0.13 | 6550.2 | |
| 20260503183455 | -2 | 312 | 6.4 | 27.4 | 0.00 | 0.00 | 0.13 | 6550.2 | |
| 20260503183411 | -2 | 312 | 6.4 | 27.4 | 0.00 | 0.00 | 0.13 | 6550.2 | |
| 20260503183207 | -2 | 307 | 8.0 | 27.4 | 0.00 | 0.00 | 0.13 | 6550.2 | |
| 20260503182351 | -2 | 304 | 11.3 | 12.9 | 0.00 | 0.00 | 0.10 | 6550.2 | |
| 20260503182147 | -2 | 299 | 6.4 | 12.9 | 0.00 | 0.00 | 0.10 | 6550.2 | |
| 20260503181943 | -2 | 288 | 11.3 | 12.9 | 0.00 | 0.00 | 0.10 | 6550.2 | |
| 20260503181331 | -2 | 304 | 11.3 | 14.5 | 0.00 | 0.00 | 0.10 | 6550.2 | |
| 20260503181127 | -2 | 300 | 6.4 | 16.1 | 0.00 | 0.00 | 0.10 | 6550.2 | |
| 20260503180923 | -2 | 312 | 4.8 | 16.1 | 0.00 | 0.00 | 0.10 | 6550.2 | |
| 20260503180719 | -2 | 280 | 9.7 | 16.1 | 0.00 | 0.00 | 0.10 | 6550.2 | |
| 20260503180515 | -2 | 321 | 8.0 | 16.1 | 0.00 | 0.00 | 0.10 | 6550.2 | |
| 20260503180311 | -2 | 289 | 9.7 | 16.1 | 0.00 | 0.00 | 0.10 | 6550.2 | |
| 20260503175734 | -2 | 308 | 6.4 | 25.7 | 0.00 | 0.00 | 0.10 | 6550.2 | |
| 20260503175659 | -2 | 308 | 6.4 | 25.7 | 0.00 | 0.00 | 0.10 | 6550.2 | |
| 20260503175315 | -2 | 298 | 9.7 | 16.1 | 0.00 | 0.00 | 0.10 | 6550.2 | |
| 20260503174925 | -2 | 290 | 11.3 | 27.4 | 0.00 | 0.00 | 0.10 | 6550.2 | |
| 20260503174639 | -2 | 273 | 16.1 | 27.4 | 0.00 | 0.00 | 0.10 | 6550.2 | |
| 20260503173900 | -2 | 283 | 11.3 | 17.7 | 0.00 | 0.00 | 0.10 | 6550.2 | |
| 20260503173211 | -2 | 281 | 9.7 | 17.7 | 0.00 | 0.00 | 0.10 | 6550.2 | |
| 20260503172408 | -2 | 271 | 4.8 | 16.1 | 0.00 | 0.00 | 0.10 | 6550.2 | |
| 20260503172211 | -2 | 223 | 9.7 | 14.5 | 0.00 | 0.00 | 0.10 | 6550.2 | |
| 20260503172004 | -2 | 263 | 3.2 | 14.5 | 0.00 | 0.00 | 0.10 | 6550.2 | |
| 20260503171801 | -2 | 285 | 6.4 | 14.5 | 0.00 | 0.00 | 0.10 | 6550.2 | |
| 20260503171556 | -2 | 273 | 9.7 | 14.5 | 0.00 | 0.00 | 0.10 | 6550.2 | |
| 20260503170953 | -2 | 235 | 11.3 | 14.5 | 0.00 | 0.00 | 0.10 | 6550.2 | |
| 20260503170741 | -2 | 250 | 11.3 | 14.5 | 0.00 | 0.00 | 0.10 | 6550.2 | |
| 20260503170539 | -2 | 182 | 3.2 | 16.1 | 0.00 | 0.00 | 0.10 | 6550.2 | |
| 20260503170345 | -2 | 235 | 8.0 | 16.1 | 0.00 | 0.00 | 0.10 | 6550.2 | |
| 20260503160116 | -2 | 308 | 3.2 | 9.7 | 0.00 | 0.00 | 0.10 | 6550.2 | |
| 20260503150529 | -2 | 261 | 9.7 | 9.7 | 0.00 | 0.00 | 0.10 | 6550.2 | |
| 20260503150324 | -2 | 262 | 8.0 | 16.1 | 0.00 | 0.00 | 0.10 | 6550.2 | |
| 20260503140241 | -2 | 238 | 11.3 | 16.1 | 0.00 | 0.00 | 0.05 | 6550.2 | |
| 20260503131206 | -2 | 220 | 3.2 | 6.4 | 0.00 | 0.00 | 0.03 | 6550.2 | |
| 20260503131030 | -2 | 221 | 6.4 | 6.4 | 0.00 | 0.00 | 0.03 | 6550.2 | |
| 20260503130149 | -2 | 261 | 14.5 | 14.5 | 0.00 | 0.00 | 0.03 | 6550.2 | |
| 20260503120154 | -2 | 223 | 9.7 | 17.7 | 0.00 | 0.00 | 0.03 | 6550.2 | |
| 20260503110638 | -2 | 112 | 1.6 | 1.6 | 0.00 | 0.00 | 0.00 | 6550.2 | |
| 20260503110525 | -2 | 220 | 4.8 | 19.3 | 0.00 | 0.00 | 0.03 | 6550.2 | |
| 20260503110122 | -2 | 175 | 11.3 | 19.3 | 0.00 | 0.00 | 0.03 | 6550.2 | |
| 20260503100235 | -2 | 227 | 8.0 | 8.0 | 0.00 | 0.00 | 0.00 | 6550.2 | |
| 20260503100203 | -2 | 227 | 8.0 | 8.0 | 0.00 | 0.00 | 0.00 | 6550.2 | |
| 20260503090421 | -2 | 186 | 1.6 | 3.2 | 0.00 | 0.00 | 0.03 | 6550.2 | |
| 20260503090240 | -2 | 135 | 1.6 | 4.8 | 0.00 | 0.00 | 0.03 | 6550.2 | |
| 20260503081622 | -2 | 315 | 0.0 | 4.8 | 0.00 | 0.00 | 0.03 | 6550.2 | |
| 20260503081418 | -2 | 276 | 0.0 | 4.8 | 0.00 | 0.00 | 0.03 | 6550.2 | |
| 20260503081252 | -2 | 314 | 0.0 | 3.2 | 0.00 | 0.00 | 0.03 | 6550.2 | |
| 20260503081214 | -2 | 314 | 0.0 | 3.2 | 0.00 | 0.00 | 0.03 | 6550.2 | |
| 20260503081120 | -2 | 303 | 1.6 | 1.6 | 0.00 | 0.00 | 0.03 | 6550.2 | |
| 20260503081010 | -2 | 303 | 1.6 | 1.6 | 0.00 | 0.00 | 0.03 | 6550.2 | |
| 20260503080842 | -2 | 216 | 1.6 | 1.6 | 0.00 | 0.00 | 0.00 | 6550.2 | |
| 20260503080806 | -2 | 216 | 1.6 | 1.6 | 0.00 | 0.00 | 0.00 | 6550.2 | |
| 20260503080602 | -2 | 247 | 0.0 | 3.2 | 0.00 | 0.00 | 0.00 | 6550.2 | |
| 20260503080450 | -2 | 217 | 0.0 | 3.2 | 0.00 | 0.00 | 0.00 | 6550.2 | |
| 20260503080358 | -2 | 217 | 0.0 | 3.2 | 0.00 | 0.00 | 0.00 | 6550.2 | |
| 20260503080233 | -2 | 225 | 1.6 | 1.6 | 0.00 | 0.00 | 0.00 | 6550.2 | |
| 20260503080154 | -2 | 225 | 1.6 | 1.6 | 0.00 | 0.00 | 0.00 | 6550.2 | |
| 20260503072851 | -2 | 270 | 0.0 | 3.2 | 0.00 | 0.00 | 0.00 | 6550.2 | |
| 20260503072647 | -2 | 228 | 1.6 | 3.2 | 0.00 | 0.00 | 0.00 | 6550.2 | |
| 20260503072544 | -2 | 212 | 1.6 | 3.2 | 0.00 | 0.00 | 0.00 | 6550.2 | |
| 20260503072443 | -2 | 212 | 1.6 | 3.2 | 0.00 | 0.00 | 0.00 | 6550.2 | |
| 20260503072238 | -2 | 207 | 3.2 | 3.2 | 0.00 | 0.00 | 0.00 | 6550.2 | |
| 20260503072108 | -2 | 281 | 0.0 | 1.6 | 0.00 | 0.00 | 0.00 | 6550.2 | |
| 20260503072035 | -2 | 281 | 0.0 | 1.6 | 0.00 | 0.00 | 0.00 | 6550.2 | |
| 20260503071831 | -2 | 257 | 0.0 | 1.6 | 0.00 | 0.00 | 0.00 | 6550.2 | |
| 20260503071705 | -2 | 238 | 1.6 | 1.6 | 0.00 | 0.00 | 0.00 | 6550.2 | |
| 20260503071627 | -2 | 238 | 1.6 | 1.6 | 0.00 | 0.00 | 0.00 | 6550.2 | |
| 20260503071423 | -2 | 225 | 0.0 | 1.6 | 0.00 | 0.00 | 0.00 | 6550.2 | |
| 20260503071219 | -2 | 190 | 0.0 | 0.0 | 0.00 | 0.00 | 0.00 | 6550.2 | |
| 20260503071015 | -2 | 193 | 0.0 | 0.0 | 0.00 | 0.00 | 0.00 | 6550.2 | |
| 20260503070811 | -2 | 180 | 0.0 | 1.6 | 0.00 | 0.00 | 0.00 | 6550.2 | |
| 20260503070607 | -2 | 135 | 0.0 | 1.6 | 0.00 | 0.00 | 0.00 | 6550.2 | |
| 20260503070445 | -2 | 109 | 0.0 | 0.0 | 0.00 | 0.00 | 0.00 | 6550.2 | |
| 20260503070403 | -2 | 109 | 0.0 | 0.0 | 0.00 | 0.00 | 0.00 | 6550.2 | |
| 20260503070400 | -2 | 94 | 1.6 | 1.6 | 0.00 | 0.00 | 0.05 | 6550.2 | |
| 20260503070310 | -2 | 94 | 1.6 | 1.6 | 0.00 | 0.00 | 0.05 | 6550.2 | |
| 20260503070105 | -2 | 97 | 0.0 | 0.0 | 0.00 | 0.00 | 0.05 | 6550.2 | |
| 20260503060313 | -2 | 90 | 0.0 | 0.0 | 0.00 | 0.00 | 0.03 | 6550.2 | |
| 20260503060150 | -2 | 180 | 0.0 | 0.0 | 0.00 | 0.00 | 0.03 | 6550.2 | |
| 20260503060110 | -2 | 180 | 0.0 | 0.0 | 0.00 | 0.00 | 0.03 | 6550.2 | |
| 20260503055050 | -2 | 90 | 0.0 | 0.0 | 0.00 | 0.00 | 0.03 | 6550.2 | |
| 20260503054939 | -2 | 90 | 0.0 | 0.0 | 0.00 | 0.00 | 0.03 | 6550.2 | |
| 20260503054846 | -2 | 90 | 0.0 | 0.0 | 0.00 | 0.00 | 0.03 | 6550.2 | |
| 20260503054642 | -2 | 90 | 0.0 | 0.0 | 0.00 | 0.00 | 0.03 | 6550.2 | |
| 20260503054520 | -2 | 90 | 0.0 | 0.0 | 0.00 | 0.00 | 0.03 | 6550.2 | |
| 20260503054438 | -2 | 90 | 0.0 | 0.0 | 0.00 | 0.00 | 0.03 | 6550.2 | |
| 20260503054234 | -2 | 89 | 0.0 | 0.0 | 0.00 | 0.00 | 0.03 | 6550.2 | |
| 20260503054030 | -2 | 90 | 0.0 | 0.0 | 0.00 | 0.00 | 0.03 | 6550.2 | |
| 20260503053913 | -2 | 89 | 0.0 | 0.0 | 0.00 | 0.00 | 0.03 | 6550.2 | |
| 20260503053826 | -2 | 89 | 0.0 | 0.0 | 0.00 | 0.00 | 0.03 | 6550.2 | |
| 20260503053622 | -2 | 90 | 0.0 | 0.0 | 0.00 | 0.00 | 0.03 | 6550.2 | |
| 20260503053418 | -2 | 90 | 0.0 | 0.0 | 0.00 | 0.00 | 0.03 | 6550.2 | |
| 20260503053304 | -2 | 90 | 0.0 | 0.0 | 0.00 | 0.00 | 0.03 | 6550.2 | |
| 20260503053214 | -2 | 90 | 0.0 | 0.0 | 0.00 | 0.00 | 0.03 | 6550.2 | |
| 20260503053010 | -2 | 90 | 0.0 | 0.0 | 0.00 | 0.00 | 0.03 | 6550.2 | |
| 20260503052835 | -2 | 90 | 0.0 | 0.0 | 0.00 | 0.00 | 0.03 | 6550.2 | |
| 20260503052602 | -2 | 90 | 0.0 | 0.0 | 0.00 | 0.00 | 0.00 | 6550.2 | |
| 20260503052154 | -2 | 315 | 0.0 | 0.0 | 0.00 | 0.00 | 0.00 | 6550.2 | |
| 20260503051950 | -2 | 315 | 0.0 | 0.0 | 0.00 | 0.00 | 0.00 | 6550.2 | |
| 20260503051746 | -2 | 315 | 0.0 | 0.0 | 0.00 | 0.00 | 0.00 | 6550.2 | |
| 20260503051622 | -2 | 0 | 0.0 | 0.0 | 0.00 | 0.00 | 0.00 | 6550.2 | |
| 20260503051542 | -2 | 0 | 0.0 | 0.0 | 0.00 | 0.00 | 0.00 | 6550.2 | |
| 20260503051338 | -2 | 315 | 0.0 | 0.0 | 0.00 | 0.00 | 0.00 | 6550.2 | |
| 20260503051134 | -2 | 315 | 0.0 | 0.0 | 0.00 | 0.00 | 0.00 | 6550.2 | |
| 20260503050930 | -2 | 225 | 0.0 | 0.0 | 0.00 | 0.00 | 0.00 | 6550.2 | |
| 20260503050803 | -2 | 225 | 0.0 | 0.0 | 0.00 | 0.00 | 0.00 | 6550.2 | |
| 20260503050726 | -2 | 225 | 0.0 | 0.0 | 0.00 | 0.00 | 0.00 | 6550.2 | |
| 20260503050607 | -2 | 225 | 0.0 | 0.0 | 0.00 | 0.00 | 0.00 | 6550.2 | |
| 20260503050522 | -2 | 225 | 0.0 | 0.0 | 0.00 | 0.00 | 0.00 | 6550.2 | |
| 20260503050318 | -2 | 112 | 0.0 | 0.0 | 0.00 | 0.00 | 0.00 | 6550.2 | |
| 20260503050141 | -2 | 225 | 0.0 | 1.6 | 0.00 | 0.00 | 0.00 | 6550.2 | |
| 20260503050020 | -2 | 323 | 0.0 | 1.6 | 0.00 | 0.00 | 0.00 | 6550.2 | |
| 20260503045937 | -2 | 323 | 0.0 | 1.6 | 0.00 | 0.00 | 0.00 | 6550.2 | |
| 20260503045733 | -2 | 315 | 0.0 | 1.6 | 0.00 | 0.00 | 0.00 | 6550.2 | |
| 20260503045608 | -2 | 275 | 0.0 | 0.0 | 0.00 | 0.00 | 0.00 | 6550.2 | |
| 20260503045529 | -2 | 275 | 0.0 | 0.0 | 0.00 | 0.00 | 0.00 | 6550.2 | |
| 20260503045325 | -2 | 270 | 0.0 | 0.0 | 0.00 | 0.00 | 0.00 | 6550.2 | |
| 20260503045121 | -2 | 197 | 0.0 | 0.0 | 0.00 | 0.00 | 0.00 | 6550.2 | |
| 20260503044917 | -2 | 90 | 0.0 | 0.0 | 0.00 | 0.00 | 0.00 | 6550.2 | |
| 20260503044805 | -2 | 126 | 0.0 | 0.0 | 0.00 | 0.00 | 0.00 | 6550.2 | |
| 20260503044713 | -2 | 126 | 0.0 | 0.0 | 0.00 | 0.00 | 0.00 | 6550.2 | |
| 20260503044509 | -2 | 0 | 0.0 | 0.0 | 0.00 | 0.00 | 0.00 | 6550.2 | |
| 20260503044352 | -2 | 0 | 0.0 | 0.0 | 0.00 | 0.00 | 0.00 | 6550.2 | |
| 20260503044305 | -2 | 0 | 0.0 | 0.0 | 0.00 | 0.00 | 0.00 | 6550.2 | |
| 20260503044134 | -2 | 0 | 0.0 | 0.0 | 0.00 | 0.00 | 0.00 | 6550.2 | |
| 20260503044101 | -2 | 0 | 0.0 | 0.0 | 0.00 | 0.00 | 0.00 | 6550.2 | |
| 20260503043932 | -2 | 0 | 0.0 | 1.6 | 0.00 | 0.00 | 0.00 | 6550.2 | |
| 20260503043857 | -2 | 0 | 0.0 | 1.6 | 0.00 | 0.00 | 0.00 | 6550.2 | |
| 20260503043737 | -2 | 315 | 0.0 | 1.6 | 0.00 | 0.00 | 0.00 | 6550.2 | |
| 20260503043653 | -2 | 315 | 0.0 | 1.6 | 0.00 | 0.00 | 0.00 | 6550.2 | |
| 20260503043545 | -2 | 315 | 0.0 | 0.0 | 0.00 | 0.00 | 0.00 | 6550.2 | |
| 20260503043449 | -2 | 315 | 0.0 | 0.0 | 0.00 | 0.00 | 0.00 | 6550.2 | |
| 20260503043245 | -2 | 315 | 0.0 | 0.0 | 0.00 | 0.00 | 0.00 | 6550.2 | |
| 20260503043113 | -2 | 270 | 0.0 | 0.0 | 0.00 | 0.00 | 0.00 | 6550.2 | |
| 20260503043041 | -2 | 270 | 0.0 | 0.0 | 0.00 | 0.00 | 0.00 | 6550.2 | |
| 20260503042837 | -2 | 270 | 0.0 | 0.0 | 0.00 | 0.00 | 0.00 | 6550.2 | |
| 20260503042429 | -2 | 180 | 0.0 | 0.0 | 0.00 | 0.00 | 0.00 | 6550.2 | |
| 20260503042109 | -2 | 315 | 0.0 | 0.0 | 0.00 | 0.00 | 0.00 | 6550.2 | |
| 20260503041905 | -2 | 315 | 0.0 | 0.0 | 0.00 | 0.00 | 0.00 | 6550.2 | |
| 20260503041741 | -2 | 315 | 0.0 | 0.0 | 0.00 | 0.00 | 0.00 | 6550.2 | |
| 20260503041701 | -2 | 315 | 0.0 | 0.0 | 0.00 | 0.00 | 0.00 | 6550.2 | |
| 20260503041458 | -2 | 135 | 0.0 | 0.0 | 0.00 | 0.00 | 0.00 | 6550.2 | |
| 20260503041253 | -2 | 135 | 0.0 | 0.0 | 0.00 | 0.00 | 0.00 | 6550.2 | |
| 20260503040845 | -2 | 109 | 0.0 | 0.0 | 0.00 | 0.00 | 0.00 | 6550.2 | |
| 20260503040719 | -2 | 106 | 0.0 | 0.0 | 0.00 | 0.00 | 0.00 | 6550.2 | |
| 20260503040642 | -2 | 106 | 0.0 | 0.0 | 0.00 | 0.00 | 0.00 | 6550.2 | |
| 20260503040459 | -2 | 89 | 0.0 | 0.0 | 0.00 | 0.00 | 0.05 | 6550.2 | |
| 20260503040328 | -2 | 89 | 0.0 | 0.0 | 0.00 | 0.00 | 0.05 | 6550.2 | |
| 20260503040256 | -2 | 89 | 0.0 | 0.0 | 0.00 | 0.00 | 0.05 | 6550.2 | |
| 20260503040051 | -2 | 135 | 0.0 | 0.0 | 0.00 | 0.00 | 0.05 | 6550.2 | |
| 20260503035848 | -2 | 112 | 0.0 | 1.6 | 0.00 | 0.00 | 0.05 | 6550.2 | |
| 20260503035440 | -2 | 135 | 0.0 | 0.0 | 0.00 | 0.00 | 0.05 | 6550.2 | |
| 20260503035235 | -2 | 135 | 0.0 | 0.0 | 0.00 | 0.00 | 0.05 | 6550.2 | |
| 20260503035032 | -2 | 135 | 0.0 | 0.0 | 0.00 | 0.00 | 0.05 | 6550.2 | |
| 20260503034828 | -2 | 90 | 0.0 | 0.0 | 0.00 | 0.00 | 0.05 | 6550.2 | |
| 20260503034710 | -2 | 90 | 0.0 | 0.0 | 0.00 | 0.00 | 0.05 | 6550.2 | |
| 20260503034624 | -2 | 90 | 0.0 | 0.0 | 0.00 | 0.00 | 0.05 | 6550.2 | |
| 20260503034216 | -2 | 90 | 0.0 | 1.6 | 0.00 | 0.00 | 0.05 | 6550.2 | |
| 20260503034012 | -2 | 90 | 0.0 | 1.6 | 0.00 | 0.00 | 0.03 | 6550.2 | |
| 20260503033808 | -2 | 90 | 0.0 | 1.6 | 0.00 | 0.00 | 0.03 | 6550.2 | |
| 20260503033604 | -2 | 136 | 0.0 | 1.6 | 0.00 | 0.00 | 0.03 | 6550.2 | |
| 20260503033400 | -2 | 127 | 0.0 | 1.6 | 0.00 | 0.00 | 0.03 | 6550.2 | |
| 20260503033042 | -2 | 89 | 1.6 | 1.6 | 0.00 | 0.00 | 0.03 | 6550.2 | |
| 20260503032952 | -2 | 89 | 1.6 | 1.6 | 0.00 | 0.00 | 0.03 | 6550.2 | |
| 20260503032748 | -2 | 112 | 0.0 | 1.6 | 0.00 | 0.00 | 0.03 | 6550.2 | |
| 20260503032340 | -2 | 111 | 0.0 | 1.6 | 0.00 | 0.00 | 0.00 | 6550.2 | |
| 20260503032136 | -2 | 225 | 0.0 | 1.6 | 0.00 | 0.00 | 0.00 | 6550.2 | |
| 20260503032009 | -2 | 76 | 0.0 | 1.6 | 0.00 | 0.00 | 0.00 | 6550.2 | |
| 20260503031932 | -2 | 76 | 0.0 | 1.6 | 0.00 | 0.00 | 0.00 | 6550.2 | |
| 20260503031811 | -2 | 111 | 1.6 | 1.6 | 0.00 | 0.00 | 0.00 | 6550.2 | |
| 20260503031728 | -2 | 111 | 1.6 | 1.6 | 0.00 | 0.00 | 0.00 | 6550.2 | |
| 20260503031524 | -2 | 89 | 0.0 | 1.6 | 0.00 | 0.00 | 0.00 | 6550.2 | |
| 20260503031357 | -2 | 90 | 0.0 | 0.0 | 0.00 | 0.00 | 0.00 | 6550.2 | |
| 20260503031320 | -2 | 90 | 0.0 | 0.0 | 0.00 | 0.00 | 0.00 | 6550.2 | |
| 20260503031116 | -2 | 95 | 0.0 | 0.0 | 0.00 | 0.00 | 0.00 | 6550.2 | |
| 20260503030951 | -2 | 135 | 0.0 | 0.0 | 0.00 | 0.00 | 0.00 | 6550.2 | |
| 20260503030912 | -2 | 135 | 0.0 | 0.0 | 0.00 | 0.00 | 0.00 | 6550.2 | |
| 20260503030751 | -2 | 89 | 0.0 | 0.0 | 0.00 | 0.00 | 0.00 | 6550.2 | |
| 20260503030708 | -2 | 89 | 0.0 | 0.0 | 0.00 | 0.00 | 0.00 | 6550.2 | |
| 20260503030504 | -2 | 90 | 0.0 | 1.6 | 0.00 | 0.00 | 0.00 | 6550.2 | |
| 20260503030300 | -2 | 89 | 0.0 | 1.6 | 0.00 | 0.00 | 0.00 | 6550.2 | |
| 20260503030005 | -2 | 95 | 1.6 | 1.6 | 0.00 | 0.00 | 0.00 | 6550.2 | |
| 20260503025837 | -2 | 132 | 0.0 | 1.6 | 0.00 | 0.00 | 0.00 | 6550.2 | |
| 20260503025801 | -2 | 132 | 0.0 | 1.6 | 0.00 | 0.00 | 0.00 | 6550.2 | |
| 20260503025631 | -2 | 90 | 0.0 | 1.6 | 0.00 | 0.00 | 0.00 | 6550.2 | |
| 20260503025557 | -2 | 90 | 0.0 | 1.6 | 0.00 | 0.00 | 0.00 | 6550.2 | |
| 20260503025427 | -2 | 95 | 1.6 | 1.6 | 0.00 | 0.00 | 0.00 | 6550.2 | |
| 20260503025353 | -2 | 95 | 1.6 | 1.6 | 0.00 | 0.00 | 0.00 | 6550.2 | |
| 20260503025149 | -2 | 90 | 0.0 | 1.6 | 0.00 | 0.00 | 0.00 | 6550.2 | |
| 20260503024945 | -2 | 79 | 0.0 | 1.6 | 0.00 | 0.00 | 0.00 | 6550.2 | |
| 20260503024741 | -2 | 106 | 0.0 | 0.0 | 0.00 | 0.00 | 0.00 | 6550.2 | |
| 20260503024537 | -2 | 100 | 0.0 | 1.6 | 0.00 | 0.00 | 0.00 | 6550.2 | |
| 20260503024333 | -2 | 89 | 0.0 | 1.6 | 0.00 | 0.00 | 0.00 | 6550.2 | |
| 20260503024129 | -2 | 76 | 0.0 | 1.6 | 0.00 | 0.00 | 0.00 | 6550.2 | |
| 20260503023925 | -2 | 90 | 0.0 | 1.6 | 0.00 | 0.00 | 0.00 | 6550.2 | |
| 20260503023816 | -2 | 94 | 0.0 | 1.6 | 0.00 | 0.00 | 0.00 | 6550.2 | |
| 20260503023722 | -2 | 94 | 0.0 | 1.6 | 0.00 | 0.00 | 0.00 | 6550.2 | |
| 20260503023517 | -2 | 90 | 0.0 | 1.6 | 0.00 | 0.00 | 0.00 | 6550.2 | |
| 20260503023314 | -2 | 133 | 0.0 | 1.6 | 0.00 | 0.00 | 0.00 | 6550.2 | |
| 20260503023145 | -2 | 152 | 0.0 | 1.6 | 0.00 | 0.00 | 0.00 | 6550.2 | |
| 20260503023109 | -2 | 152 | 0.0 | 1.6 | 0.00 | 0.00 | 0.00 | 6550.2 | |
| 20260503022906 | -2 | 135 | 1.6 | 1.6 | 0.00 | 0.00 | 0.00 | 6550.2 | |
| 20260503022701 | -2 | 90 | 0.0 | 1.6 | 0.00 | 0.00 | 0.00 | 6550.2 | |
| 20260503022553 | -2 | 90 | 0.0 | 0.0 | 0.00 | 0.00 | 0.00 | 6550.2 | |
| 20260503022458 | -2 | 90 | 0.0 | 0.0 | 0.00 | 0.00 | 0.00 | 6550.2 | |
| 20260503022253 | -2 | 90 | 0.0 | 1.6 | 0.00 | 0.00 | 0.00 | 6550.2 | |
| 20260503022050 | -2 | 90 | 0.0 | 1.6 | 0.00 | 0.00 | 0.00 | 6550.2 | |
| 20260503021642 | -2 | 96 | 0.0 | 0.0 | 0.00 | 0.00 | 0.00 | 6550.2 | |
| 20260503021437 | -2 | 315 | 0.0 | 0.0 | 0.00 | 0.00 | 0.00 | 6550.2 | |
| 20260503021234 | -2 | 315 | 0.0 | 0.0 | 0.00 | 0.00 | 0.00 | 6550.2 | |
| 20260503021029 | -2 | 315 | 0.0 | 0.0 | 0.00 | 0.00 | 0.00 | 6550.2 | |
| 20260503020900 | -2 | 315 | 0.0 | 0.0 | 0.00 | 0.00 | 0.00 | 6550.2 | |
| 20260503020826 | -2 | 315 | 0.0 | 0.0 | 0.00 | 0.00 | 0.00 | 6550.2 | |
| 20260503020621 | -2 | 315 | 0.0 | 0.0 | 0.00 | 0.00 | 0.00 | 6550.2 | |
| 20260503020418 | -2 | 315 | 0.0 | 0.0 | 0.00 | 0.00 | 0.00 | 6550.2 | |
| 20260503020213 | -2 | 315 | 0.0 | 0.0 | 0.00 | 0.00 | 0.00 | 6550.2 | |
| 20260503020010 | -2 | 315 | 0.0 | 1.6 | 0.00 | 0.00 | 0.00 | 6550.2 | |
| 20260503015806 | -2 | 0 | 0.0 | 1.6 | 0.00 | 0.00 | 0.00 | 6550.2 | |
| 20260503015636 | -2 | 270 | 0.0 | 1.6 | 0.00 | 0.00 | 0.00 | 6550.2 | |
| 20260503015602 | -2 | 270 | 0.0 | 1.6 | 0.00 | 0.00 | 0.00 | 6550.2 | |
| 20260503015358 | -2 | 283 | 0.0 | 0.0 | 0.00 | 0.00 | 0.00 | 6550.2 | |
| 20260503015154 | -2 | 270 | 0.0 | 0.0 | 0.00 | 0.00 | 0.00 | 6550.2 | |
| 20260503014950 | -2 | 270 | 0.0 | 0.0 | 0.00 | 0.00 | 0.00 | 6550.2 | |
| 20260503014746 | -2 | 45 | 0.0 | 0.0 | 0.00 | 0.00 | 0.00 | 6550.2 | |
| 20260503014623 | -2 | 67 | 0.0 | 1.6 | 0.00 | 0.00 | 0.00 | 6550.2 | |
| 20260503014542 | -2 | 67 | 0.0 | 1.6 | 0.00 | 0.00 | 0.00 | 6550.2 | |
| 20260503014338 | -2 | 135 | 0.0 | 1.6 | 0.00 | 0.00 | 0.00 | 6550.2 | |
| 20260503014134 | -2 | 278 | 0.0 | 1.6 | 0.00 | 0.00 | 0.00 | 6550.2 | |
| 20260503014014 | -2 | 120 | 0.0 | 1.6 | 0.00 | 0.00 | 0.00 | 6550.2 | |
| 20260503013930 | -2 | 120 | 0.0 | 1.6 | 0.00 | 0.00 | 0.00 | 6550.2 | |
| 20260503013605 | -2 | 108 | 0.0 | 1.6 | 0.00 | 0.00 | 0.00 | 6550.2 | |
| 20260503013522 | -2 | 108 | 0.0 | 1.6 | 0.00 | 0.00 | 0.00 | 6550.2 | |
| 20260503013318 | -2 | 107 | 1.6 | 1.6 | 0.00 | 0.00 | 0.00 | 6550.2 | |
| 20260503012910 | -2 | 85 | 0.0 | 1.6 | 0.00 | 0.00 | 0.00 | 6550.2 | |
| 20260503012706 | -2 | 135 | 0.0 | 1.6 | 0.00 | 0.00 | 0.00 | 6550.2 | |
| 20260503012502 | -2 | 91 | 0.0 | 1.6 | 0.00 | 0.00 | 0.00 | 6550.2 | |
| 20260503012329 | -2 | 132 | 0.0 | 1.6 | 0.00 | 0.00 | 0.00 | 6550.2 | |
| 20260503012258 | -2 | 132 | 0.0 | 1.6 | 0.00 | 0.00 | 0.00 | 6550.2 | |
| 20260503012054 | -2 | 108 | 1.6 | 3.2 | 0.00 | 0.00 | 0.00 | 6550.2 | |
| 20260503011850 | -2 | 127 | 0.0 | 3.2 | 0.00 | 0.00 | 0.00 | 6550.2 | |
| 20260503011646 | -2 | 135 | 0.0 | 3.2 | 0.00 | 0.00 | 0.00 | 6550.2 | |
| 20260503011442 | -2 | 101 | 0.0 | 3.2 | 0.00 | 0.00 | 0.00 | 6550.2 | |
| 20260503011106 | -2 | 85 | 1.6 | 1.6 | 0.00 | 0.00 | 0.00 | 6550.2 | |
| 20260503011034 | -2 | 85 | 1.6 | 1.6 | 0.00 | 0.00 | 0.00 | 6550.2 | |
| 20260503010830 | -2 | 89 | 0.0 | 1.6 | 0.00 | 0.00 | 0.00 | 6550.2 | |
| 20260503010704 | -2 | 135 | 0.0 | 1.6 | 0.00 | 0.00 | 0.00 | 6550.2 | |
| 20260503010626 | -2 | 135 | 0.0 | 1.6 | 0.00 | 0.00 | 0.00 | 6550.2 | |
| 20260503010422 | -2 | 117 | 0.0 | 1.6 | 0.00 | 0.00 | 0.00 | 6550.2 | |
| 20260503010218 | -2 | 135 | 0.0 | 1.6 | 0.00 | 0.00 | 0.00 | 6550.2 | |
| 20260503010103 | -2 | 135 | 0.0 | 1.6 | 0.00 | 0.00 | 0.00 | 6550.2 | |
| 20260503010014 | -2 | 135 | 0.0 | 1.6 | 0.00 | 0.00 | 0.00 | 6550.2 | |
| 20260503005810 | -2 | 119 | 0.0 | 0.0 | 0.00 | 0.00 | 0.00 | 6550.2 | |
| 20260503005637 | -2 | 154 | 0.0 | 0.0 | 0.00 | 0.00 | 0.00 | 6550.2 | |
| 20260503005606 | -2 | 154 | 0.0 | 0.0 | 0.00 | 0.00 | 0.00 | 6550.2 | |
| 20260503005211 | -2 | 120 | 0.0 | 1.6 | 0.00 | 0.00 | 0.00 | 6550.2 | |
| 20260503005007 | -2 | 128 | 0.0 | 1.6 | 0.00 | 0.00 | 0.00 | 6550.2 | |
| 20260503004843 | -2 | 146 | 0.0 | 1.6 | 0.00 | 0.00 | 0.00 | 6550.2 | |
| 20260503004803 | -2 | 146 | 0.0 | 1.6 | 0.00 | 0.00 | 0.00 | 6550.2 | |
| 20260503004600 | -2 | 80 | 0.0 | 1.6 | 0.00 | 0.00 | 0.00 | 6550.2 | |
| 20260503004355 | -2 | 135 | 0.0 | 1.6 | 0.00 | 0.00 | 0.00 | 6550.2 | |
| 20260503004225 | -2 | 122 | 1.6 | 1.6 | 0.00 | 0.00 | 0.00 | 6550.2 | |
| 20260503003947 | -2 | 122 | 1.6 | 1.6 | 0.00 | 0.00 | 0.00 | 6550.2 | |
| 20260503003817 | -2 | 138 | 1.6 | 1.6 | 0.00 | 0.00 | 0.00 | 6550.2 | |
| 20260503003744 | -2 | 138 | 1.6 | 1.6 | 0.00 | 0.00 | 0.00 | 6550.2 | |
| 20260503003620 | -2 | 94 | 0.0 | 1.6 | 0.00 | 0.00 | 0.00 | 6550.2 | |
| 20260503003539 | -2 | 94 | 0.0 | 1.6 | 0.00 | 0.00 | 0.00 | 6550.2 | |
| 20260503003336 | -2 | 121 | 1.6 | 3.2 | 0.00 | 0.00 | 0.00 | 6550.2 | |
| 20260503003207 | -2 | 120 | 0.0 | 3.2 | 0.00 | 0.00 | 0.00 | 6550.2 | |
| 20260503003131 | -2 | 120 | 0.0 | 3.2 | 0.00 | 0.00 | 0.00 | 6550.2 | |
| 20260503002928 | -2 | 114 | 1.6 | 3.2 | 0.00 | 0.00 | 0.00 | 6550.2 | |
| 20260503002802 | -2 | 140 | 1.6 | 1.6 | 0.00 | 0.00 | 0.00 | 6550.2 | |
| 20260503002723 | -2 | 140 | 1.6 | 1.6 | 0.00 | 0.00 | 0.00 | 6550.2 | |
| 20260503002603 | -2 | 125 | 1.6 | 3.2 | 0.00 | 0.00 | 0.00 | 6550.2 | |
| 20260503002520 | -2 | 125 | 1.6 | 3.2 | 0.00 | 0.00 | 0.00 | 6550.2 | |
| 20260503002315 | -2 | 113 | 0.0 | 3.2 | 0.00 | 0.00 | 0.00 | 6550.2 | |
| 20260503002112 | -2 | 54 | 1.6 | 1.6 | 0.00 | 0.00 | 0.00 | 6550.2 | |
| 20260503001907 | -2 | 107 | 0.0 | 3.2 | 0.00 | 0.00 | 0.00 | 6550.2 | |
| 20260503001739 | -2 | 180 | 0.0 | 3.2 | 0.00 | 0.00 | 0.00 | 6550.2 | |
| 20260503001704 | -2 | 180 | 0.0 | 3.2 | 0.00 | 0.00 | 0.00 | 6550.2 | |
| 20260503001554 | -2 | 135 | 0.0 | 3.2 | 0.00 | 0.00 | 0.00 | 6550.2 | |
| 20260503001459 | -2 | 135 | 0.0 | 3.2 | 0.00 | 0.00 | 0.00 | 6550.2 | |
| 20260503001256 | -2 | 162 | 0.0 | 3.2 | 0.00 | 0.00 | 0.00 | 6550.2 | |
| 20260503001051 | -2 | 102 | 1.6 | 3.2 | 0.00 | 0.00 | 0.00 | 6550.2 | |
| 20260503000926 | -2 | 117 | 0.0 | 1.6 | 0.00 | 0.00 | 0.00 | 6550.2 | |
| 20260503000848 | -2 | 117 | 0.0 | 1.6 | 0.00 | 0.00 | 0.00 | 6550.2 | |
| 20260503000643 | -2 | 168 | 0.0 | 1.6 | 0.00 | 0.00 | 0.00 | 6550.2 | |
| 20260503000520 | -2 | 103 | 0.0 | 3.2 | 0.00 | 0.00 | 0.00 | 6550.2 | |
| 20260503000440 | -2 | 103 | 0.0 | 3.2 | 0.00 | 0.00 | 0.00 | 6550.2 | |
| 20260503000106 | -2 | 89 | 1.6 | 3.2 | 0.00 | 0.00 | 0.00 | 6550.2 | |
| 20260503000032 | -2 | 89 | 1.6 | 3.2 | 0.00 | 0.00 | 0.00 | 6550.2 | |
| 20260502235827 | -2 | 90 | 1.6 | 3.2 | 0.00 | 0.00 | 0.00 | 6550.2 | |
| 20260502235624 | -2 | 90 | 1.6 | 3.2 | 0.00 | 0.00 | 0.00 | 6550.2 | |
| 20260502235419 | -2 | 90 | 1.6 | 3.2 | 0.00 | 0.00 | 0.00 | 6550.2 | |
| 20260502235216 | -2 | 100 | 0.0 | 1.6 | 0.00 | 0.00 | 0.00 | 6550.2 | |
| 20260502235011 | -2 | 90 | 1.6 | 1.6 | 0.00 | 0.00 | 0.00 | 6550.2 | |
| 20260502234851 | -2 | 90 | 0.0 | 1.6 | 0.00 | 0.00 | 0.00 | 6550.2 | |
| 20260502234808 | -2 | 90 | 0.0 | 1.6 | 0.00 | 0.00 | 0.00 | 6550.2 | |
| 20260502234603 | -2 | 90 | 1.6 | 1.6 | 0.00 | 0.00 | 0.00 | 6550.2 | |
| 20260502234400 | -2 | 90 | 0.0 | 1.6 | 0.00 | 0.00 | 0.00 | 6550.2 | |
| 20260502234155 | -2 | 108 | 0.0 | 1.6 | 0.00 | 0.00 | 0.00 | 6550.2 | |
| 20260502233952 | -2 | 45 | 0.0 | 1.6 | 0.00 | 0.00 | 0.00 | 6550.2 | |
| 20260502233747 | -2 | 89 | 0.0 | 1.6 | 0.00 | 0.00 | 0.00 | 6550.2 | |
| 20260502233640 | -2 | 90 | 1.6 | 1.6 | 0.00 | 0.00 | 0.00 | 6550.2 | |
| 20260502233544 | -2 | 90 | 1.6 | 1.6 | 0.00 | 0.00 | 0.00 | 6550.2 | |
| 20260502233339 | -2 | 103 | 1.6 | 1.6 | 0.00 | 0.00 | 0.00 | 6550.2 | |
| 20260502233209 | -2 | 108 | 0.0 | 0.0 | 0.00 | 0.00 | 0.00 | 6550.2 | |
| 20260502233136 | -2 | 108 | 0.0 | 0.0 | 0.00 | 0.00 | 0.00 | 6550.2 | |
| 20260502233011 | -2 | 135 | 0.0 | 1.6 | 0.00 | 0.00 | 0.00 | 6550.2 | |
| 20260502232931 | -2 | 135 | 0.0 | 1.6 | 0.00 | 0.00 | 0.00 | 6550.2 | |
| 20260502232524 | -2 | 135 | 0.0 | 1.6 | 0.00 | 0.00 | 0.00 | 6550.2 | |
| 20260502232411 | -2 | 175 | 0.0 | 3.2 | 0.00 | 0.00 | 0.00 | 6550.2 | |
| 20260502232320 | -2 | 175 | 0.0 | 3.2 | 0.00 | 0.00 | 0.00 | 6550.2 | |
| 20260502232116 | -2 | 143 | 1.6 | 3.2 | 0.00 | 0.00 | 0.00 | 6550.2 | |
| 20260502231912 | -2 | 135 | 0.0 | 1.6 | 0.00 | 0.00 | 0.00 | 6550.2 | |
| 20260502231743 | -2 | 197 | 0.0 | 1.6 | 0.00 | 0.00 | 0.00 | 6550.2 | |
| 20260502231708 | -2 | 197 | 0.0 | 1.6 | 0.00 | 0.00 | 0.00 | 6550.2 | |
| 20260502231551 | -2 | 151 | 0.0 | 1.6 | 0.00 | 0.00 | 0.00 | 6550.2 | |
| 20260502231504 | -2 | 151 | 0.0 | 1.6 | 0.00 | 0.00 | 0.00 | 6550.2 | |
| 20260502231300 | -2 | 135 | 0.0 | 1.6 | 0.00 | 0.00 | 0.00 | 6550.2 | |
| 20260502231139 | -2 | 118 | 0.0 | 0.0 | 0.00 | 0.00 | 0.00 | 6550.2 | |
| 20260502231056 | -2 | 118 | 0.0 | 0.0 | 0.00 | 0.00 | 0.00 | 6550.2 | |
| 20260502230909 | -2 | 135 | 1.6 | 1.6 | 0.00 | 0.00 | 0.00 | 6550.2 | |
| 20260502230747 | -2 | 103 | 0.0 | 3.2 | 0.00 | 0.00 | 0.00 | 6550.2 | |
| 20260502230705 | -2 | 103 | 0.0 | 3.2 | 0.00 | 0.00 | 0.00 | 6550.2 | |
| 20260502230549 | -2 | 89 | 0.0 | 3.2 | 0.00 | 0.00 | 0.00 | 6550.2 | |
| 20260502230325 | -2 | 140 | 1.6 | 1.6 | 0.00 | 0.00 | 0.00 | 6550.2 | |
| 20260502230053 | -2 | 135 | 0.0 | 1.6 | 0.00 | 0.00 | 0.00 | 6550.2 | |
| 20260502225849 | -2 | 125 | 0.0 | 1.6 | 0.00 | 0.00 | 0.00 | 6550.2 | |
| 20260502225645 | -2 | 135 | 0.0 | 1.6 | 0.00 | 0.00 | 0.00 | 6550.2 | |
| 20260502225441 | -2 | 135 | 0.0 | 1.6 | 0.00 | 0.00 | 0.00 | 6550.2 | |
| 20260502225237 | -2 | 180 | 0.0 | 1.6 | 0.00 | 0.00 | 0.00 | 6550.2 | |
| 20260502225125 | -2 | 180 | 0.0 | 1.6 | 0.00 | 0.00 | 0.00 | 6550.2 | |
| 20260502225033 | -2 | 180 | 0.0 | 1.6 | 0.00 | 0.00 | 0.00 | 6550.2 | |
| 20260502224829 | -2 | 170 | 0.0 | 1.6 | 0.00 | 0.00 | 0.00 | 6550.2 | |
| 20260502224625 | -2 | 170 | 1.6 | 1.6 | 0.00 | 0.00 | 0.00 | 6550.2 | |
| 20260502224505 | -2 | 145 | 1.6 | 1.6 | 0.00 | 0.00 | 0.00 | 6550.2 | |
| 20260502224421 | -2 | 145 | 1.6 | 1.6 | 0.00 | 0.00 | 0.00 | 6550.2 | |
| 20260502224217 | -2 | 135 | 0.0 | 1.6 | 0.00 | 0.00 | 0.00 | 6550.2 | |
| 20260502224054 | -2 | 118 | 0.0 | 0.0 | 0.00 | 0.00 | 0.00 | 6550.2 | |
| 20260502224013 | -2 | 118 | 0.0 | 0.0 | 0.00 | 0.00 | 0.00 | 6550.2 | |
| 20260502223834 | -2 | 135 | 0.0 | 1.6 | 0.00 | 0.00 | 0.05 | 6550.2 | |
| 20260502223630 | -2 | 135 | 0.0 | 1.6 | 0.00 | 0.00 | 0.05 | 6550.2 | |
| 20260502223457 | -2 | 104 | 0.0 | 1.6 | 0.00 | 0.00 | 0.05 | 6550.2 | |
| 20260502223426 | -2 | 104 | 0.0 | 1.6 | 0.00 | 0.00 | 0.05 | 6550.2 | |
| 20260502223222 | -2 | 66 | 1.6 | 1.6 | 0.00 | 0.00 | 0.05 | 6550.2 | |
| 20260502223056 | -2 | 120 | 0.0 | 1.6 | 0.00 | 0.00 | 0.05 | 6550.2 | |
| 20260502223018 | -2 | 120 | 0.0 | 1.6 | 0.00 | 0.00 | 0.05 | 6550.2 | |
| 20260502222814 | -2 | 135 | 0.0 | 1.6 | 0.00 | 0.00 | 0.05 | 6550.2 | |
| 20260502222708 | -2 | 90 | 0.0 | 1.6 | 0.00 | 0.00 | 0.05 | 6550.2 | |
| 20260502222610 | -2 | 90 | 0.0 | 1.6 | 0.00 | 0.00 | 0.05 | 6550.2 | |
| 20260502222440 | -2 | 45 | 1.6 | 1.6 | 0.00 | 0.00 | 0.05 | 6550.2 | |
| 20260502222406 | -2 | 45 | 1.6 | 1.6 | 0.00 | 0.00 | 0.05 | 6550.2 | |
| 20260502222202 | -2 | 90 | 0.0 | 0.0 | 0.00 | 0.00 | 0.05 | 6550.2 | |
| 20260502222031 | -2 | 135 | 0.0 | 0.0 | 0.00 | 0.00 | 0.05 | 6550.2 | |
| 20260502221958 | -2 | 135 | 0.0 | 0.0 | 0.00 | 0.00 | 0.05 | 6550.2 | |
| 20260502221825 | -2 | 135 | 0.0 | 0.0 | 0.00 | 0.00 | 0.05 | 6550.2 | |
| 20260502221754 | -2 | 135 | 0.0 | 0.0 | 0.00 | 0.00 | 0.05 | 6550.2 | |
| 20260502221627 | -2 | 167 | 0.0 | 0.0 | 0.00 | 0.00 | 0.05 | 6550.2 | |
| 20260502221550 | -2 | 167 | 0.0 | 0.0 | 0.00 | 0.00 | 0.05 | 6550.2 | |
| 20260502221446 | -2 | 180 | 0.0 | 1.6 | 0.00 | 0.00 | 0.05 | 6550.2 | |
| 20260502221346 | -2 | 180 | 0.0 | 1.6 | 0.00 | 0.00 | 0.05 | 6550.2 | |
| 20260502221142 | -2 | 180 | 0.0 | 1.6 | 0.00 | 0.00 | 0.05 | 6550.2 | |
| 20260502220820 | -2 | 225 | 0.0 | 1.6 | 0.00 | 0.00 | 0.05 | 6550.2 | |
| 20260502220734 | -2 | 225 | 0.0 | 1.6 | 0.00 | 0.00 | 0.05 | 6550.2 | |
| 20260502220616 | -2 | 225 | 0.0 | 4.8 | 0.00 | 0.00 | 0.05 | 6550.2 | |
| 20260502220530 | -2 | 225 | 0.0 | 4.8 | 0.00 | 0.00 | 0.05 | 6550.2 | |
| 20260502220326 | -2 | 275 | 0.0 | 4.8 | 0.00 | 0.00 | 0.05 | 6550.2 | |
| 20260502220159 | -2 | 262 | 3.2 | 4.8 | 0.00 | 0.00 | 0.05 | 6550.2 | |
| 20260502220122 | -2 | 262 | 3.2 | 4.8 | 0.00 | 0.00 | 0.05 | 6550.2 | |
| 20260502215918 | -2 | 246 | 0.0 | 4.8 | 0.00 | 0.00 | 0.05 | 6550.2 | |
| 20260502215714 | -2 | 257 | 1.6 | 4.8 | 0.00 | 0.00 | 0.05 | 6550.2 | |
| 20260502215510 | -2 | 243 | 4.8 | 4.8 | 0.00 | 0.00 | 0.05 | 6550.2 | |
| 20260502215306 | -2 | 188 | 1.6 | 3.2 | 0.00 | 0.00 | 0.05 | 6550.2 | |
| 20260502215102 | -2 | 221 | 3.2 | 3.2 | 0.00 | 0.00 | 0.05 | 6550.2 | |
| 20260502214858 | -2 | 226 | 1.6 | 1.6 | 0.00 | 0.00 | 0.05 | 6550.2 | |
| 20260502214654 | -2 | 230 | 0.0 | 4.8 | 0.00 | 0.00 | 0.05 | 6550.2 | |
| 20260502214450 | -2 | 271 | 0.0 | 4.8 | 0.00 | 0.00 | 0.05 | 6550.2 | |
| 20260502214246 | -2 | 261 | 4.8 | 4.8 | 0.00 | 0.00 | 0.05 | 6550.2 | |
| 20260502214144 | -2 | 218 | 1.6 | 4.8 | 0.00 | 0.00 | 0.05 | 6550.2 | |
| 20260502214042 | -2 | 218 | 1.6 | 4.8 | 0.00 | 0.00 | 0.05 | 6550.2 | |
| 20260502213838 | -2 | 162 | 1.6 | 6.4 | 0.00 | 0.00 | 0.05 | 6550.2 | |
| 20260502213634 | -2 | 270 | 4.8 | 6.4 | 0.00 | 0.00 | 0.03 | 6550.2 | |
| 20260502213503 | -2 | 168 | 4.8 | 6.4 | 0.00 | 0.00 | 0.03 | 6550.2 | |
| 20260502213430 | -2 | 168 | 4.8 | 6.4 | 0.00 | 0.00 | 0.03 | 6550.2 | |
| 20260502213226 | -2 | 228 | 1.6 | 6.4 | 0.00 | 0.00 | 0.03 | 6550.2 | |
| 20260502213022 | -2 | 234 | 3.2 | 3.2 | 0.00 | 0.00 | 0.03 | 6550.2 | |
| 20260502212909 | -2 | 229 | 1.6 | 3.2 | 0.00 | 0.00 | 0.03 | 6550.2 | |
| 20260502212818 | -2 | 229 | 1.6 | 3.2 | 0.00 | 0.00 | 0.03 | 6550.2 | |
| 20260502212614 | -2 | 200 | 1.6 | 4.8 | 0.00 | 0.00 | 0.03 | 6550.2 | |
| 20260502212410 | -2 | 197 | 1.6 | 6.4 | 0.00 | 0.00 | 0.03 | 6550.2 | |
| 20260502212239 | -2 | 267 | 4.8 | 6.4 | 0.00 | 0.00 | 0.03 | 6550.2 | |
| 20260502212206 | -2 | 267 | 4.8 | 6.4 | 0.00 | 0.00 | 0.03 | 6550.2 | |
| 20260502212002 | -2 | 270 | 3.2 | 3.2 | 0.00 | 0.00 | 0.03 | 6550.2 | |
| 20260502211758 | -2 | 200 | 0.0 | 3.2 | 0.00 | 0.00 | 0.03 | 6550.2 | |
| 20260502211554 | -2 | 224 | 1.6 | 3.2 | 0.00 | 0.00 | 0.03 | 6550.2 | |
| 20260502211350 | -2 | 234 | 1.6 | 3.2 | 0.00 | 0.00 | 0.03 | 6550.2 | |
| 20260502211146 | -2 | 228 | 0.0 | 3.2 | 0.00 | 0.00 | 0.03 | 6550.2 | |
| 20260502211018 | -2 | 194 | 0.0 | 3.2 | 0.00 | 0.00 | 0.03 | 6550.2 | |
| 20260502210942 | -2 | 194 | 0.0 | 3.2 | 0.00 | 0.00 | 0.03 | 6550.2 | |
| 20260502210810 | -2 | 224 | 1.6 | 3.2 | 0.00 | 0.00 | 0.03 | 6550.2 | |
| 20260502210738 | -2 | 224 | 1.6 | 3.2 | 0.00 | 0.00 | 0.03 | 6550.2 | |
| 20260502210534 | -2 | 216 | 1.6 | 4.8 | 0.00 | 0.00 | 0.00 | 6550.2 | |
| 20260502210330 | -2 | 209 | 1.6 | 4.8 | 0.00 | 0.00 | 0.00 | 6550.2 | |
| 20260502210126 | -2 | 254 | 3.2 | 3.2 | 0.00 | 0.00 | 0.00 | 6550.2 | |
| 20260502210008 | -2 | 191 | 3.2 | 3.2 | 0.00 | 0.00 | 0.00 | 6550.2 | |
| 20260502205922 | -2 | 191 | 3.2 | 3.2 | 0.00 | 0.00 | 0.00 | 6550.2 | |
| 20260502205718 | -2 | 225 | 3.2 | 3.2 | 0.00 | 0.00 | 0.00 | 6550.2 | |
| 20260502205613 | -2 | 243 | 1.6 | 3.2 | 0.00 | 0.00 | 0.00 | 6550.2 | |
| 20260502205515 | -2 | 243 | 1.6 | 3.2 | 0.00 | 0.00 | 0.00 | 6550.2 | |
| 20260502205347 | -2 | 234 | 1.6 | 3.2 | 0.00 | 0.00 | 0.00 | 6550.2 | |
| 20260502205310 | -2 | 234 | 1.6 | 3.2 | 0.00 | 0.00 | 0.00 | 6550.2 | |
| 20260502205107 | -2 | 112 | 0.0 | 0.0 | 0.00 | 0.00 | 0.00 | 6550.2 | |
| 20260502205021 | -2 | 197 | 1.6 | 4.8 | 0.00 | 0.00 | 0.00 | 6550.2 | |
| 20260502204947 | -2 | 197 | 1.6 | 4.8 | 0.00 | 0.00 | 0.00 | 6550.2 | |
| 20260502204743 | -2 | 193 | 0.0 | 4.8 | 0.00 | 0.00 | 0.00 | 6550.2 | |
| 20260502204539 | -2 | 202 | 3.2 | 4.8 | 0.00 | 0.00 | 0.00 | 6550.2 | |
| 20260502204335 | -2 | 225 | 3.2 | 4.8 | 0.00 | 0.00 | 0.00 | 6550.2 | |
| 20260502204131 | -2 | 267 | 1.6 | 4.8 | 0.00 | 0.00 | 0.00 | 6550.2 | |
| 20260502204002 | -2 | 176 | 0.0 | 3.2 | 0.00 | 0.00 | 0.00 | 6550.2 | |
| 20260502203927 | -2 | 176 | 0.0 | 3.2 | 0.00 | 0.00 | 0.00 | 6550.2 | |
| 20260502203723 | -2 | 220 | 1.6 | 3.2 | 0.00 | 0.00 | 0.00 | 6550.2 | |
| 20260502203519 | -2 | 121 | 1.6 | 4.8 | 0.00 | 0.00 | 0.00 | 6550.2 | |
| 20260502203315 | -2 | 225 | 0.0 | 4.8 | 0.00 | 0.00 | 0.00 | 6550.2 | |
| 20260502203111 | -2 | 263 | 3.2 | 4.8 | 0.00 | 0.00 | 0.00 | 6550.2 | |
| 20260502202907 | -2 | 250 | 3.2 | 6.4 | 0.00 | 0.00 | 0.00 | 6550.2 | |
| 20260502202703 | -2 | 232 | 1.6 | 6.4 | 0.00 | 0.00 | 0.00 | 6550.2 | |
| 20260502202555 | -2 | 225 | 1.6 | 6.4 | 0.00 | 0.00 | 0.00 | 6550.2 | |
| 20260502202459 | -2 | 225 | 1.6 | 6.4 | 0.00 | 0.00 | 0.00 | 6550.2 | |
| 20260502202255 | -2 | 225 | 0.0 | 3.2 | 0.00 | 0.00 | 0.00 | 6550.2 | |
| 20260502202051 | -2 | 225 | 0.0 | 1.6 | 0.00 | 0.00 | 0.00 | 6550.2 | |
| 20260502201848 | -2 | 112 | 0.0 | 0.0 | 0.00 | 0.00 | 0.00 | 6550.2 | |
| 20260502201610 | -2 | 224 | 1.6 | 11.3 | 0.00 | 0.00 | 0.00 | 6550.2 | |
| 20260502201236 | -2 | 274 | 6.4 | 14.5 | 0.00 | 0.00 | 0.00 | 6550.2 | |
| 20260502201202 | -2 | 274 | 6.4 | 14.5 | 0.00 | 0.00 | 0.00 | 6550.2 | |
| 20260502201058 | -2 | 237 | 4.8 | 14.5 | 0.00 | 0.00 | 0.00 | 6550.2 | |
| 20260502200957 | -2 | 237 | 4.8 | 14.5 | 0.00 | 0.00 | 0.00 | 6550.2 | |
| 20260502200837 | -2 | 266 | 4.8 | 9.7 | 0.00 | 0.00 | 0.00 | 6550.2 | |
| 20260502200754 | -2 | 266 | 4.8 | 9.7 | 0.00 | 0.00 | 0.00 | 6550.2 | |
| 20260502200621 | -2 | 226 | 4.8 | 6.4 | 0.00 | 0.00 | 0.00 | 6550.2 | |
| 20260502200549 | -2 | 226 | 4.8 | 6.4 | 0.00 | 0.00 | 0.00 | 6550.2 | |
| 20260502200450 | -2 | 112 | 0.0 | 0.0 | 0.00 | 0.00 | 0.00 | 6550.2 | |
| 20260502200346 | -2 | 112 | 0.0 | 0.0 | 0.00 | 0.00 | 0.00 | 6550.2 | |
| 20260502200150 | -2 | 267 | 1.6 | 1.6 | 0.00 | 0.00 | 0.10 | 6550.2 | |
| 20260502200025 | -2 | 235 | 1.6 | 1.6 | 0.00 | 0.00 | 0.10 | 6550.2 | |
| 20260502195946 | -2 | 235 | 1.6 | 1.6 | 0.00 | 0.00 | 0.10 | 6550.2 | |
| 20260502195828 | -2 | 226 | 1.6 | 1.6 | 0.00 | 0.00 | 0.10 | 6550.2 | |
| 20260502195742 | -2 | 226 | 1.6 | 1.6 | 0.00 | 0.00 | 0.10 | 6550.2 | |
| 20260502195538 | -2 | 225 | 0.0 | 3.2 | 0.00 | 0.00 | 0.10 | 6550.2 | |
| 20260502195334 | -2 | 225 | 0.0 | 3.2 | 0.00 | 0.00 | 0.10 | 6550.2 | |
| 20260502195240 | -2 | 225 | 1.6 | 3.2 | 0.00 | 0.00 | 0.10 | 6550.2 | |
| 20260502195130 | -2 | 225 | 1.6 | 3.2 | 0.00 | 0.00 | 0.10 | 6550.2 | |
| 20260502195026 | -2 | 195 | 0.0 | 0.0 | 0.00 | 0.00 | 0.10 | 6550.2 | |
| 20260502194926 | -2 | 195 | 0.0 | 0.0 | 0.00 | 0.00 | 0.10 | 6550.2 | |
| 20260502194807 | -2 | 205 | 0.0 | 1.6 | 0.00 | 0.00 | 0.10 | 6550.2 | |
| 20260502194722 | -2 | 205 | 0.0 | 1.6 | 0.00 | 0.00 | 0.10 | 6550.2 | |
| 20260502194614 | -2 | 200 | 0.0 | 1.6 | 0.00 | 0.00 | 0.10 | 6550.2 | |
| 20260502194518 | -2 | 200 | 0.0 | 1.6 | 0.00 | 0.00 | 0.10 | 6550.2 | |
| 20260502194314 | -2 | 135 | 0.0 | 0.0 | 0.00 | 0.00 | 0.10 | 6550.2 | |
| 20260502194110 | -2 | 135 | 0.0 | 0.0 | 0.00 | 0.00 | 0.10 | 6550.2 | |
| 20260502194003 | -2 | 135 | 0.0 | 0.0 | 0.00 | 0.00 | 0.10 | 6550.2 | |
| 20260502193907 | -2 | 135 | 0.0 | 0.0 | 0.00 | 0.00 | 0.10 | 6550.2 | |
| 20260502193737 | -2 | 135 | 0.0 | 0.0 | 0.00 | 0.00 | 0.10 | 6550.2 | |
| 20260502193702 | -2 | 135 | 0.0 | 0.0 | 0.00 | 0.00 | 0.10 | 6550.2 | |
| 20260502193459 | -2 | 45 | 0.0 | 1.6 | 0.00 | 0.00 | 0.10 | 6550.2 | |
| 20260502193254 | -2 | 45 | 0.0 | 1.6 | 0.00 | 0.00 | 0.10 | 6550.2 | |
| 20260502193051 | -2 | 90 | 1.6 | 1.6 | 0.00 | 0.00 | 0.10 | 6550.2 | |
| 20260502192846 | -2 | 90 | 0.0 | 1.6 | 0.00 | 0.00 | 0.10 | 6550.2 | |
| 20260502192717 | -2 | 149 | 0.0 | 1.6 | 0.00 | 0.00 | 0.08 | 6550.2 | |
| 20260502192643 | -2 | 149 | 0.0 | 1.6 | 0.00 | 0.00 | 0.08 | 6550.2 | |
| 20260502192525 | -2 | 225 | 0.0 | 3.2 | 0.00 | 0.00 | 0.08 | 6550.2 | |
| 20260502192438 | -2 | 225 | 0.0 | 3.2 | 0.00 | 0.00 | 0.08 | 6550.2 | |
| 20260502192306 | -2 | 135 | 0.0 | 3.2 | 0.00 | 0.00 | 0.08 | 6550.2 | |
| 20260502192235 | -2 | 135 | 0.0 | 3.2 | 0.00 | 0.00 | 0.08 | 6550.2 | |
| 20260502192030 | -2 | 155 | 0.0 | 1.6 | 0.00 | 0.00 | 0.08 | 6550.2 | |
| 20260502191902 | -2 | 180 | 1.6 | 1.6 | 0.00 | 0.00 | 0.08 | 6550.2 | |
| 20260502191827 | -2 | 180 | 1.6 | 1.6 | 0.00 | 0.00 | 0.08 | 6550.2 | |
| 20260502191622 | -2 | 160 | 1.6 | 1.6 | 0.00 | 0.00 | 0.08 | 6550.2 | |
| 20260502191419 | -2 | 180 | 1.6 | 1.6 | 0.00 | 0.00 | 0.08 | 6550.2 | |
| 20260502191301 | -2 | 225 | 0.0 | 1.6 | 0.00 | 0.00 | 0.05 | 6550.2 | |
| 20260502191214 | -2 | 225 | 0.0 | 1.6 | 0.00 | 0.00 | 0.05 | 6550.2 | |
| 20260502191011 | -2 | 225 | 0.0 | 1.6 | 0.00 | 0.00 | 0.05 | 6550.2 | |
| 20260502190806 | -2 | 229 | 0.0 | 1.6 | 0.00 | 0.00 | 0.05 | 6550.2 | |
| 20260502190643 | -2 | 225 | 0.0 | 1.6 | 0.00 | 0.00 | 0.05 | 6550.2 | |
| 20260502190603 | -2 | 225 | 0.0 | 1.6 | 0.00 | 0.00 | 0.05 | 6550.2 | |
| 20260502190358 | -2 | 180 | 0.0 | 1.6 | 0.00 | 0.00 | 0.05 | 6550.2 | |
| 20260502190246 | -2 | 180 | 0.0 | 1.6 | 0.00 | 0.00 | 0.05 | 6550.2 | |
| 20260502190155 | -2 | 180 | 0.0 | 1.6 | 0.00 | 0.00 | 0.05 | 6550.2 | |
| 20260502185833 | -2 | 135 | 0.0 | 3.2 | 0.00 | 0.00 | 0.05 | 6550.2 | |
| 20260502185747 | -2 | 135 | 0.0 | 3.2 | 0.00 | 0.00 | 0.05 | 6550.2 | |
| 20260502185543 | -2 | 180 | 0.0 | 3.2 | 0.00 | 0.00 | 0.05 | 6550.2 | |
| 20260502185339 | -2 | 180 | 1.6 | 3.2 | 0.00 | 0.00 | 0.05 | 6550.2 |